Change the Weather History Date:

Tuesday, February 25, 2014

  Actual Average Record
Temperature  
Mean Temperature 65 °F 57 °F  
Max Temperature 81 °F 70 °F 84 °F (1977)
Min Temperature 48 °F 44 °F 18 °F (1989)
Degree Days  
Heating Degree Days 0    
Month to date heating degree days 179  
Since 1 July heating degree days 1095  
Cooling Degree Days 0    
Month to date cooling degree days 10  
Year to date cooling degree days 12  
Growing Degree Days 14 (Base 50)    
Moisture  
Dew Point 50 °F    
Average Humidity 60    
Maximum Humidity 89    
Minimum Humidity 30    
Precipitation  
Precipitation 0.00 in 0.20 in 3.95 in (2013)
Month to date precipitation 3.76 4.29  
Year to date precipitation 7.43 8.63  
Sea Level Pressure  
Sea Level Pressure 30.02 in    
Wind  
Wind Speed 3 mph (WNW)    
Max Wind Speed 13 mph    
Max Gust Speed 18 mph    
Visibility 10 miles    
Events Fog    
T = Trace of Precipitation, MM = Missing Value Source: NWS Daily Summary

Daily Weather History Graph

Daily Weather History Graph

Search for Another Location

Airport or City:

Trip Planner

Search our weather history database for the weather conditions in past years. The results will help you decide how hot, cold, wet, or windy it might be!

Date:

Astronomy

Feb. 25, 2014 Rise Set
Actual Time 7:07 AM EST 6:33 PM EST
Civil Twilight 6:43 AM EST 6:57 PM EST
Nautical Twilight 6:15 AM EST 7:25 PM EST
Astronomical Twilight 5:47 AM EST 7:53 PM EST
Moon 3:50 AM EST (2/25) 2:49 PM EST (2/25)
Length of Visible Light 12h 13m
Length of Day
11h 25m
Waning Crescent, 18% of the Moon is Illuminated
Feb 25
Waning Crescent
Mar 1
New
Mar 8
First Quarter
Mar 16
Full
Mar 23
Last Quarter

Hourly Weather History & Observations

Time (EST) Temp. Dew Point Humidity Pressure Visibility Wind Dir Wind Speed Gust Speed Precip Events Conditions
12:53 AM 57.9 °F 52.0 °F 81% 30.06 in 10.0 mi Calm Calm - N/A   Clear
1:53 AM 55.9 °F 52.0 °F 87% 30.04 in 10.0 mi Calm Calm - N/A   Clear
2:53 AM 53.1 °F 48.9 °F 86% 30.04 in 10.0 mi Calm Calm - N/A   Clear
3:53 AM 52.0 °F 48.0 °F 86% 30.04 in 10.0 mi Calm Calm - N/A   Clear
4:53 AM 52.0 °F 48.0 °F 86% 30.04 in 10.0 mi Calm Calm - N/A   Clear
5:53 AM 50.0 °F 46.0 °F 86% 30.06 in 10.0 mi Calm Calm - N/A Fog Patches of Fog
6:12 AM 48.2 °F 44.6 °F 87% 30.06 in 10.0 mi Calm Calm - N/A Fog Patches of Fog
6:53 AM 48.9 °F 45.0 °F 86% 30.06 in 10.0 mi Calm Calm - N/A Fog Patches of Fog
7:53 AM 51.1 °F 46.9 °F 86% 30.08 in 10.0 mi Calm Calm - N/A Fog Patches of Fog
8:53 AM 60.1 °F 52.0 °F 75% 30.09 in 10.0 mi Calm Calm - N/A   Clear
9:53 AM 66.9 °F 53.1 °F 61% 30.09 in 10.0 mi Calm Calm - N/A   Partly Cloudy
10:53 AM 73.0 °F 51.1 °F 46% 30.09 in 10.0 mi Variable 3.5 mph - N/A   Scattered Clouds
11:53 AM 77.0 °F 48.0 °F 36% 30.07 in 10.0 mi NNW 9.2 mph 18.4 mph N/A   Clear
12:53 PM 79.0 °F 48.0 °F 34% 30.03 in 10.0 mi North 8.1 mph - N/A   Scattered Clouds
1:53 PM 80.1 °F 46.9 °F 31% 29.99 in 10.0 mi NNW 8.1 mph - N/A   Scattered Clouds
2:53 PM 79.0 °F 48.0 °F 34% 29.96 in 10.0 mi WNW 6.9 mph - N/A   Scattered Clouds
3:53 PM 80.1 °F 46.9 °F 31% 29.96 in 10.0 mi WNW 9.2 mph - N/A   Mostly Cloudy
4:53 PM 79.0 °F 46.9 °F 32% 29.95 in 10.0 mi Variable 3.5 mph - N/A   Scattered Clouds
5:53 PM 73.9 °F 54.0 °F 50% 29.96 in 10.0 mi SSW 9.2 mph - N/A   Mostly Cloudy
6:53 PM 70.0 °F 55.0 °F 59% 29.97 in 10.0 mi South 4.6 mph - N/A   Scattered Clouds
7:53 PM 66.0 °F 55.0 °F 68% 29.97 in 10.0 mi Calm Calm - N/A   Scattered Clouds
8:53 PM 62.1 °F 55.0 °F 78% 29.97 in 10.0 mi Calm Calm - N/A   Scattered Clouds
9:53 PM 61.0 °F 55.0 °F 81% 29.96 in 10.0 mi Calm Calm - N/A   Scattered Clouds
10:53 PM 59.0 °F 54.0 °F 83% 29.97 in 10.0 mi Calm Calm - N/A   Mostly Cloudy
11:53 PM 57.0 °F 52.0 °F 83% 29.96 in 10.0 mi Calm Calm - N/A   Clear